Netzbetreibername:;Stadtwerke Malchow;;
Netz- oder Umspannebene:;Mittelspannung MS;;
Lastgangtyp:;Summe aller Einspeisungen;;
gesetzliche Grundlage:;� 17 Abs. 2 Nr. 6 StromNZV;;
Einheit:;kW;;
Betrachtungszeitraum:;01.01.2012;31.12.2012;
;;;
Datum;von;bis;Wert
01.01.2020;00:00;00:15;101
01.01.2020;00:15;00:30;115
01.01.2020;00:30;00:45;153
01.01.2020;00:45;01:00;133
01.01.2020;01:00;01:15;127
01.01.2020;01:15;01:30;118
01.01.2020;01:30;01:45;137
01.01.2020;01:45;02:00;170
01.01.2020;02:00;02:15;121
01.01.2020;02:15;02:30;135
01.01.2020;02:30;02:45;141
01.01.2020;02:45;03:00;137
01.01.2020;03:00;03:15;93
01.01.2020;03:15;03:30;78
01.01.2020;03:30;03:45;69
01.01.2020;03:45;04:00;64
01.01.2020;04:00;04:15;110
01.01.2020;04:15;04:30;131
01.01.2020;04:30;04:45;93
01.01.2020;04:45;05:00;99
01.01.2020;05:00;05:15;87
01.01.2020;05:15;05:30;59
01.01.2020;05:30;05:45;82
01.01.2020;05:45;06:00;64
01.01.2020;06:00;06:15;33
01.01.2020;06:15;06:30;38
01.01.2020;06:30;06:45;51
01.01.2020;06:45;07:00;56
01.01.2020;07:00;07:15;49
01.01.2020;07:15;07:30;43
01.01.2020;07:30;07:45;55
01.01.2020;07:45;08:00;95
01.01.2020;08:00;08:15;85
01.01.2020;08:15;08:30;75
01.01.2020;08:30;08:45;72
01.01.2020;08:45;09:00;115
01.01.2020;09:00;09:15;112
01.01.2020;09:15;09:30;114
01.01.2020;09:30;09:45;95
01.01.2020;09:45;10:00;86
01.01.2020;10:00;10:15;60
01.01.2020;10:15;10:30;99
01.01.2020;10:30;10:45;106
01.01.2020;10:45;11:00;100
01.01.2020;11:00;11:15;170
01.01.2020;11:15;11:30;174
01.01.2020;11:30;11:45;143
01.01.2020;11:45;12:00;158
01.01.2020;12:00;12:15;215
01.01.2020;12:15;12:30;228
01.01.2020;12:30;12:45;264
01.01.2020;12:45;13:00;226
01.01.2020;13:00;13:15;177
01.01.2020;13:15;13:30;232
01.01.2020;13:30;13:45;135
01.01.2020;13:45;14:00;192
01.01.2020;14:00;14:15;175
01.01.2020;14:15;14:30;152
01.01.2020;14:30;14:45;171
01.01.2020;14:45;15:00;109
01.01.2020;15:00;15:15;138
01.01.2020;15:15;15:30;93
01.01.2020;15:30;15:45;67
01.01.2020;15:45;16:00;66
01.01.2020;16:00;16:15;52
01.01.2020;16:15;16:30;46
01.01.2020;16:30;16:45;81
01.01.2020;16:45;17:00;37
01.01.2020;17:00;17:15;37
01.01.2020;17:15;17:30;50
01.01.2020;17:30;17:45;82
01.01.2020;17:45;18:00;32
01.01.2020;18:00;18:15;81
01.01.2020;18:15;18:30;93
01.01.2020;18:30;18:45;56
01.01.2020;18:45;19:00;59
01.01.2020;19:00;19:15;65
01.01.2020;19:15;19:30;61
01.01.2020;19:30;19:45;36
01.01.2020;19:45;20:00;83
01.01.2020;20:00;20:15;167
01.01.2020;20:15;20:30;167
01.01.2020;20:30;20:45;316
01.01.2020;20:45;21:00;300
01.01.2020;21:00;21:15;255
01.01.2020;21:15;21:30;210
01.01.2020;21:30;21:45;168
01.01.2020;21:45;22:00;168
01.01.2020;22:00;22:15;140
01.01.2020;22:15;22:30;93
01.01.2020;22:30;22:45;56
01.01.2020;22:45;23:00;80
01.01.2020;23:00;23:15;75
01.01.2020;23:15;23:30;79
01.01.2020;23:30;23:45;68
02.01.2020;23:45;00:00;61
02.01.2020;00:00;00:15;78
02.01.2020;00:15;00:30;83
02.01.2020;00:30;00:45;69
02.01.2020;00:45;01:00;68
02.01.2020;01:00;01:15;95
02.01.2020;01:15;01:30;72,7
02.01.2020;01:30;01:45;73,528
02.01.2020;01:45;02:00;139,908
02.01.2020;02:00;02:15;167,92
02.01.2020;02:15;02:30;162,952
02.01.2020;02:30;02:45;173,716
02.01.2020;02:45;03:00;86,088
02.01.2020;03:00;03:15;149,704
02.01.2020;03:15;03:30;305,368
02.01.2020;03:30;03:45;210,976
02.01.2020;03:45;04:00;181,308
02.01.2020;04:00;04:15;194,276
02.01.2020;04:15;04:30;295,432
02.01.2020;04:30;04:45;444,472
02.01.2020;04:45;05:00;360,016
02.01.2020;05:00;05:15;253
02.01.2020;05:15;05:30;222
02.01.2020;05:30;05:45;245
02.01.2020;05:45;06:00;127
02.01.2020;06:00;06:15;55
02.01.2020;06:15;06:30;135
02.01.2020;06:30;06:45;78
02.01.2020;06:45;07:00;69
02.01.2020;07:00;07:15;82
02.01.2020;07:15;07:30;147
02.01.2020;07:30;07:45;97
02.01.2020;07:45;08:00;180
02.01.2020;08:00;08:15;152
02.01.2020;08:15;08:30;71
02.01.2020;08:30;08:45;70
02.01.2020;08:45;09:00;95
02.01.2020;09:00;09:15;70
02.01.2020;09:15;09:30;65
02.01.2020;09:30;09:45;109
02.01.2020;09:45;10:00;80
02.01.2020;10:00;10:15;100
02.01.2020;10:15;10:30;73
02.01.2020;10:30;10:45;87
02.01.2020;10:45;11:00;121
02.01.2020;11:00;11:15;147
02.01.2020;11:15;11:30;189
02.01.2020;11:30;11:45;158
02.01.2020;11:45;12:00;143
02.01.2020;12:00;12:15;173
02.01.2020;12:15;12:30;232
02.01.2020;12:30;12:45;232
02.01.2020;12:45;13:00;238
02.01.2020;13:00;13:15;137
02.01.2020;13:15;13:30;152
02.01.2020;13:30;13:45;113
02.01.2020;13:45;14:00;118
02.01.2020;14:00;14:15;105
02.01.2020;14:15;14:30;102
02.01.2020;14:30;14:45;94
02.01.2020;14:45;15:00;61
02.01.2020;15:00;15:15;49
02.01.2020;15:15;15:30;38
02.01.2020;15:30;15:45;39
02.01.2020;15:45;16:00;43
02.01.2020;16:00;16:15;59
02.01.2020;16:15;16:30;99
02.01.2020;16:30;16:45;99
02.01.2020;16:45;17:00;101
02.01.2020;17:00;17:15;100
02.01.2020;17:15;17:30;111
02.01.2020;17:30;17:45;122
02.01.2020;17:45;18:00;160
02.01.2020;18:00;18:15;119
02.01.2020;18:15;18:30;125
02.01.2020;18:30;18:45;144
02.01.2020;18:45;19:00;154
02.01.2020;19:00;19:15;209
02.01.2020;19:15;19:30;169
02.01.2020;19:30;19:45;211
02.01.2020;19:45;20:00;229
02.01.2020;20:00;20:15;438
02.01.2020;20:15;20:30;426
02.01.2020;20:30;20:45;367
02.01.2020;20:45;21:00;224
02.01.2020;21:00;21:15;152
02.01.2020;21:15;21:30;168
02.01.2020;21:30;21:45;146
02.01.2020;21:45;22:00;158
02.01.2020;22:00;22:15;126
02.01.2020;22:15;22:30;162
02.01.2020;22:30;22:45;150
02.01.2020;22:45;23:00;140
02.01.2020;23:00;23:15;179
02.01.2020;23:15;23:30;171
02.01.2020;23:30;23:45;187
03.01.2020;23:45;00:00;156
03.01.2020;00:00;00:15;146
03.01.2020;00:15;00:30;147
03.01.2020;00:30;00:45;169
03.01.2020;00:45;01:00;169
03.01.2020;01:00;01:15;170
03.01.2020;01:15;01:30;157
03.01.2020;01:30;01:45;220
03.01.2020;01:45;02:00;245
03.01.2020;02:00;02:15;219
03.01.2020;02:15;02:30;257
03.01.2020;02:30;02:45;326
03.01.2020;02:45;03:00;263
03.01.2020;03:00;03:15;224
03.01.2020;03:15;03:30;222,568
03.01.2020;03:30;03:45;214,288
03.01.2020;03:45;04:00;274,872
03.01.2020;04:00;04:15;254,032
03.01.2020;04:15;04:30;261,484
03.01.2020;04:30;04:45;204
03.01.2020;04:45;05:00;233
03.01.2020;05:00;05:15;285
03.01.2020;05:15;05:30;283
03.01.2020;05:30;05:45;322
03.01.2020;05:45;06:00;319
03.01.2020;06:00;06:15;291
03.01.2020;06:15;06:30;284
03.01.2020;06:30;06:45;335
03.01.2020;06:45;07:00;252
03.01.2020;07:00;07:15;276
03.01.2020;07:15;07:30;313
03.01.2020;07:30;07:45;251
03.01.2020;07:45;08:00;274
03.01.2020;08:00;08:15;194
03.01.2020;08:15;08:30;256
03.01.2020;08:30;08:45;289
03.01.2020;08:45;09:00;243
03.01.2020;09:00;09:15;283
03.01.2020;09:15;09:30;326
03.01.2020;09:30;09:45;377
03.01.2020;09:45;10:00;370
03.01.2020;10:00;10:15;283
03.01.2020;10:15;10:30;296
03.01.2020;10:30;10:45;312
03.01.2020;10:45;11:00;343
03.01.2020;11:00;11:15;312
03.01.2020;11:15;11:30;310
03.01.2020;11:30;11:45;273
03.01.2020;11:45;12:00;291
03.01.2020;12:00;12:15;300
03.01.2020;12:15;12:30;268
03.01.2020;12:30;12:45;205
03.01.2020;12:45;13:00;213
03.01.2020;13:00;13:15;209
03.01.2020;13:15;13:30;296
03.01.2020;13:30;13:45;274
03.01.2020;13:45;14:00;259
03.01.2020;14:00;14:15;238
03.01.2020;14:15;14:30;170
03.01.2020;14:30;14:45;167
03.01.2020;14:45;15:00;158
03.01.2020;15:00;15:15;121
03.01.2020;15:15;15:30;142
03.01.2020;15:30;15:45;137
03.01.2020;15:45;16:00;161
03.01.2020;16:00;16:15;171
03.01.2020;16:15;16:30;176
03.01.2020;16:30;16:45;185
03.01.2020;16:45;17:00;195
03.01.2020;17:00;17:15;171
03.01.2020;17:15;17:30;199
03.01.2020;17:30;17:45;170
03.01.2020;17:45;18:00;185
03.01.2020;18:00;18:15;182
03.01.2020;18:15;18:30;226
03.01.2020;18:30;18:45;199
03.01.2020;18:45;19:00;165
03.01.2020;19:00;19:15;150
03.01.2020;19:15;19:30;127
03.01.2020;19:30;19:45;140
03.01.2020;19:45;20:00;151
03.01.2020;20:00;20:15;406
03.01.2020;20:15;20:30;328
03.01.2020;20:30;20:45;250
03.01.2020;20:45;21:00;133
03.01.2020;21:00;21:15;219
03.01.2020;21:15;21:30;160
03.01.2020;21:30;21:45;80
03.01.2020;21:45;22:00;77
03.01.2020;22:00;22:15;84
03.01.2020;22:15;22:30;147
03.01.2020;22:30;22:45;191
03.01.2020;22:45;23:00;229
03.01.2020;23:00;23:15;254
03.01.2020;23:15;23:30;266
03.01.2020;23:30;23:45;265
04.01.2020;23:45;00:00;281
04.01.2020;00:00;00:15;250
04.01.2020;00:15;00:30;237
04.01.2020;00:30;00:45;220
04.01.2020;00:45;01:00;253
04.01.2020;01:00;01:15;242
04.01.2020;01:15;01:30;231
04.01.2020;01:30;01:45;171
04.01.2020;01:45;02:00;194
04.01.2020;02:00;02:15;284
04.01.2020;02:15;02:30;330
04.01.2020;02:30;02:45;368
04.01.2020;02:45;03:00;311
04.01.2020;03:00;03:15;327
04.01.2020;03:15;03:30;327
04.01.2020;03:30;03:45;475
04.01.2020;03:45;04:00;476
04.01.2020;04:00;04:15;428
04.01.2020;04:15;04:30;515
04.01.2020;04:30;04:45;502
04.01.2020;04:45;05:00;455
04.01.2020;05:00;05:15;439
04.01.2020;05:15;05:30;440
04.01.2020;05:30;05:45;380
04.01.2020;05:45;06:00;356
04.01.2020;06:00;06:15;365
04.01.2020;06:15;06:30;375
04.01.2020;06:30;06:45;430
04.01.2020;06:45;07:00;421
04.01.2020;07:00;07:15;406
04.01.2020;07:15;07:30;445
04.01.2020;07:30;07:45;404
04.01.2020;07:45;08:00;465
04.01.2020;08:00;08:15;502
04.01.2020;08:15;08:30;445
04.01.2020;08:30;08:45;462
04.01.2020;08:45;09:00;502
04.01.2020;09:00;09:15;483
04.01.2020;09:15;09:30;397
04.01.2020;09:30;09:45;428
04.01.2020;09:45;10:00;483
04.01.2020;10:00;10:15;456
04.01.2020;10:15;10:30;493
04.01.2020;10:30;10:45;379
04.01.2020;10:45;11:00;427
04.01.2020;11:00;11:15;430
04.01.2020;11:15;11:30;516
04.01.2020;11:30;11:45;633
04.01.2020;11:45;12:00;590
04.01.2020;12:00;12:15;605
04.01.2020;12:15;12:30;646
04.01.2020;12:30;12:45;552
04.01.2020;12:45;13:00;440
04.01.2020;13:00;13:15;305
04.01.2020;13:15;13:30;299
04.01.2020;13:30;13:45;372
04.01.2020;13:45;14:00;367
04.01.2020;14:00;14:15;397
04.01.2020;14:15;14:30;515
04.01.2020;14:30;14:45;529
04.01.2020;14:45;15:00;430
04.01.2020;15:00;15:15;344
04.01.2020;15:15;15:30;324
04.01.2020;15:30;15:45;302
04.01.2020;15:45;16:00;358
04.01.2020;16:00;16:15;234
04.01.2020;16:15;16:30;253
04.01.2020;16:30;16:45;314
04.01.2020;16:45;17:00;330
04.01.2020;17:00;17:15;287
04.01.2020;17:15;17:30;305
04.01.2020;17:30;17:45;300
04.01.2020;17:45;18:00;282
04.01.2020;18:00;18:15;269
04.01.2020;18:15;18:30;379
04.01.2020;18:30;18:45;300
04.01.2020;18:45;19:00;373
04.01.2020;19:00;19:15;381
04.01.2020;19:15;19:30;314
04.01.2020;19:30;19:45;295
04.01.2020;19:45;20:00;307
04.01.2020;20:00;20:15;240
04.01.2020;20:15;20:30;224
04.01.2020;20:30;20:45;124
04.01.2020;20:45;21:00;162
04.01.2020;21:00;21:15;165
04.01.2020;21:15;21:30;117
04.01.2020;21:30;21:45;113
04.01.2020;21:45;22:00;92
04.01.2020;22:00;22:15;127
04.01.2020;22:15;22:30;126
04.01.2020;22:30;22:45;134
04.01.2020;22:45;23:00;130
04.01.2020;23:00;23:15;157
04.01.2020;23:15;23:30;170
04.01.2020;23:30;23:45;262
05.01.2020;23:45;00:00;195
05.01.2020;00:00;00:15;156
05.01.2020;00:15;00:30;148
05.01.2020;00:30;00:45;203
05.01.2020;00:45;01:00;222
05.01.2020;01:00;01:15;247
05.01.2020;01:15;01:30;242
05.01.2020;01:30;01:45;242
05.01.2020;01:45;02:00;281
05.01.2020;02:00;02:15;287
05.01.2020;02:15;02:30;300
05.01.2020;02:30;02:45;224
05.01.2020;02:45;03:00;259
05.01.2020;03:00;03:15;226
05.01.2020;03:15;03:30;158
05.01.2020;03:30;03:45;123
05.01.2020;03:45;04:00;127
05.01.2020;04:00;04:15;117
05.01.2020;04:15;04:30;123
05.01.2020;04:30;04:45;131
05.01.2020;04:45;05:00;136
05.01.2020;05:00;05:15;103
05.01.2020;05:15;05:30;122
05.01.2020;05:30;05:45;123
05.01.2020;05:45;06:00;106
05.01.2020;06:00;06:15;113
05.01.2020;06:15;06:30;77
05.01.2020;06:30;06:45;42
05.01.2020;06:45;07:00;43
05.01.2020;07:00;07:15;42
05.01.2020;07:15;07:30;30
05.01.2020;07:30;07:45;26
05.01.2020;07:45;08:00;66
05.01.2020;08:00;08:15;65
05.01.2020;08:15;08:30;35
05.01.2020;08:30;08:45;38
05.01.2020;08:45;09:00;37
05.01.2020;09:00;09:15;18
05.01.2020;09:15;09:30;18
05.01.2020;09:30;09:45;45
05.01.2020;09:45;10:00;77
05.01.2020;10:00;10:15;97
05.01.2020;10:15;10:30;96
05.01.2020;10:30;10:45;64
05.01.2020;10:45;11:00;42
05.01.2020;11:00;11:15;61
05.01.2020;11:15;11:30;75
05.01.2020;11:30;11:45;84
05.01.2020;11:45;12:00;74
05.01.2020;12:00;12:15;66
05.01.2020;12:15;12:30;87
05.01.2020;12:30;12:45;81
05.01.2020;12:45;13:00;64
05.01.2020;13:00;13:15;60
05.01.2020;13:15;13:30;66
05.01.2020;13:30;13:45;57
05.01.2020;13:45;14:00;55
05.01.2020;14:00;14:15;69
05.01.2020;14:15;14:30;65
05.01.2020;14:30;14:45;76
05.01.2020;14:45;15:00;112
05.01.2020;15:00;15:15;88
05.01.2020;15:15;15:30;78
05.01.2020;15:30;15:45;61
05.01.2020;15:45;16:00;43
05.01.2020;16:00;16:15;49
05.01.2020;16:15;16:30;93
05.01.2020;16:30;16:45;75
05.01.2020;16:45;17:00;51
05.01.2020;17:00;17:15;60
05.01.2020;17:15;17:30;95
05.01.2020;17:30;17:45;94
05.01.2020;17:45;18:00;121
05.01.2020;18:00;18:15;140
05.01.2020;18:15;18:30;130
05.01.2020;18:30;18:45;126
05.01.2020;18:45;19:00;125
05.01.2020;19:00;19:15;137
05.01.2020;19:15;19:30;137
05.01.2020;19:30;19:45;104
05.01.2020;19:45;20:00;111
05.01.2020;20:00;20:15;111
05.01.2020;20:15;20:30;102
05.01.2020;20:30;20:45;101
05.01.2020;20:45;21:00;96
05.01.2020;21:00;21:15;125
05.01.2020;21:15;21:30;142
05.01.2020;21:30;21:45;126
05.01.2020;21:45;22:00;136
05.01.2020;22:00;22:15;136
05.01.2020;22:15;22:30;155
05.01.2020;22:30;22:45;153
05.01.2020;22:45;23:00;162
05.01.2020;23:00;23:15;157
05.01.2020;23:15;23:30;147
05.01.2020;23:30;23:45;180
06.01.2020;23:45;00:00;158
06.01.2020;00:00;00:15;163
06.01.2020;00:15;00:30;175
06.01.2020;00:30;00:45;171
06.01.2020;00:45;01:00;161
06.01.2020;01:00;01:15;152
06.01.2020;01:15;01:30;156
06.01.2020;01:30;01:45;155
06.01.2020;01:45;02:00;152
06.01.2020;02:00;02:15;149
06.01.2020;02:15;02:30;158
06.01.2020;02:30;02:45;159
06.01.2020;02:45;03:00;149
06.01.2020;03:00;03:15;171
06.01.2020;03:15;03:30;181
06.01.2020;03:30;03:45;184
06.01.2020;03:45;04:00;175
06.01.2020;04:00;04:15;171
06.01.2020;04:15;04:30;167
06.01.2020;04:30;04:45;160
06.01.2020;04:45;05:00;157
06.01.2020;05:00;05:15;146
06.01.2020;05:15;05:30;150
06.01.2020;05:30;05:45;143
06.01.2020;05:45;06:00;119
06.01.2020;06:00;06:15;96
06.01.2020;06:15;06:30;75
06.01.2020;06:30;06:45;54
06.01.2020;06:45;07:00;51
06.01.2020;07:00;07:15;46
06.01.2020;07:15;07:30;61
06.01.2020;07:30;07:45;58
06.01.2020;07:45;08:00;87
06.01.2020;08:00;08:15;68
06.01.2020;08:15;08:30;70
06.01.2020;08:30;08:45;69
06.01.2020;08:45;09:00;113
06.01.2020;09:00;09:15;136
06.01.2020;09:15;09:30;93
06.01.2020;09:30;09:45;98
06.01.2020;09:45;10:00;94
06.01.2020;10:00;10:15;133
06.01.2020;10:15;10:30;131
06.01.2020;10:30;10:45;123
06.01.2020;10:45;11:00;112
06.01.2020;11:00;11:15;100
06.01.2020;11:15;11:30;106
06.01.2020;11:30;11:45;117
06.01.2020;11:45;12:00;125
06.01.2020;12:00;12:15;130
06.01.2020;12:15;12:30;136
06.01.2020;12:30;12:45;142
06.01.2020;12:45;13:00;109
06.01.2020;13:00;13:15;65
06.01.2020;13:15;13:30;68
06.01.2020;13:30;13:45;70
06.01.2020;13:45;14:00;53
06.01.2020;14:00;14:15;63
06.01.2020;14:15;14:30;60
06.01.2020;14:30;14:45;64
06.01.2020;14:45;15:00;48
06.01.2020;15:00;15:15;38
06.01.2020;15:15;15:30;18
06.01.2020;15:30;15:45;19
06.01.2020;15:45;16:00;19
06.01.2020;16:00;16:15;17
06.01.2020;16:15;16:30;26
06.01.2020;16:30;16:45;39
06.01.2020;16:45;17:00;41
06.01.2020;17:00;17:15;43
06.01.2020;17:15;17:30;30
06.01.2020;17:30;17:45;45
06.01.2020;17:45;18:00;48
06.01.2020;18:00;18:15;55
06.01.2020;18:15;18:30;70
06.01.2020;18:30;18:45;62
06.01.2020;18:45;19:00;61
06.01.2020;19:00;19:15;52
06.01.2020;19:15;19:30;62
06.01.2020;19:30;19:45;47
06.01.2020;19:45;20:00;51
06.01.2020;20:00;20:15;60
06.01.2020;20:15;20:30;49
06.01.2020;20:30;20:45;65
06.01.2020;20:45;21:00;65
06.01.2020;21:00;21:15;60
06.01.2020;21:15;21:30;60
06.01.2020;21:30;21:45;74
06.01.2020;21:45;22:00;67
06.01.2020;22:00;22:15;72
06.01.2020;22:15;22:30;62
06.01.2020;22:30;22:45;58
06.01.2020;22:45;23:00;73
06.01.2020;23:00;23:15;63
06.01.2020;23:15;23:30;63
06.01.2020;23:30;23:45;73
07.01.2020;23:45;00:00;60
07.01.2020;00:00;00:15;65
07.01.2020;00:15;00:30;105
07.01.2020;00:30;00:45;106
07.01.2020;00:45;01:00;121
07.01.2020;01:00;01:15;101
07.01.2020;01:15;01:30;103
07.01.2020;01:30;01:45;112
07.01.2020;01:45;02:00;103
07.01.2020;02:00;02:15;113
07.01.2020;02:15;02:30;121
07.01.2020;02:30;02:45;91
07.01.2020;02:45;03:00;100
07.01.2020;03:00;03:15;104
07.01.2020;03:15;03:30;92
07.01.2020;03:30;03:45;73
07.01.2020;03:45;04:00;59
07.01.2020;04:00;04:15;52
07.01.2020;04:15;04:30;54
07.01.2020;04:30;04:45;70
07.01.2020;04:45;05:00;67
07.01.2020;05:00;05:15;91
07.01.2020;05:15;05:30;96
07.01.2020;05:30;05:45;68
07.01.2020;05:45;06:00;45
07.01.2020;06:00;06:15;40
07.01.2020;06:15;06:30;36
07.01.2020;06:30;06:45;73
07.01.2020;06:45;07:00;103
07.01.2020;07:00;07:15;152
07.01.2020;07:15;07:30;164
07.01.2020;07:30;07:45;139
07.01.2020;07:45;08:00;112
07.01.2020;08:00;08:15;104
07.01.2020;08:15;08:30;114
07.01.2020;08:30;08:45;106
07.01.2020;08:45;09:00;99
07.01.2020;09:00;09:15;75
07.01.2020;09:15;09:30;104
07.01.2020;09:30;09:45;119
07.01.2020;09:45;10:00;132
07.01.2020;10:00;10:15;150
07.01.2020;10:15;10:30;167
07.01.2020;10:30;10:45;156
07.01.2020;10:45;11:00;134
07.01.2020;11:00;11:15;138
07.01.2020;11:15;11:30;135
07.01.2020;11:30;11:45;89
07.01.2020;11:45;12:00;110
07.01.2020;12:00;12:15;114
07.01.2020;12:15;12:30;120
07.01.2020;12:30;12:45;137
07.01.2020;12:45;13:00;124
07.01.2020;13:00;13:15;101
07.01.2020;13:15;13:30;61
07.01.2020;13:30;13:45;72
07.01.2020;13:45;14:00;88
07.01.2020;14:00;14:15;112
07.01.2020;14:15;14:30;91
07.01.2020;14:30;14:45;92
07.01.2020;14:45;15:00;82
07.01.2020;15:00;15:15;81
07.01.2020;15:15;15:30;86
07.01.2020;15:30;15:45;109
07.01.2020;15:45;16:00;112
07.01.2020;16:00;16:15;92
07.01.2020;16:15;16:30;118
07.01.2020;16:30;16:45;104
07.01.2020;16:45;17:00;106
07.01.2020;17:00;17:15;116
07.01.2020;17:15;17:30;108
07.01.2020;17:30;17:45;86
07.01.2020;17:45;18:00;79
07.01.2020;18:00;18:15;101
07.01.2020;18:15;18:30;108
07.01.2020;18:30;18:45;112
07.01.2020;18:45;19:00;146
07.01.2020;19:00;19:15;142
07.01.2020;19:15;19:30;123
07.01.2020;19:30;19:45;113
07.01.2020;19:45;20:00;108
07.01.2020;20:00;20:15;118
07.01.2020;20:15;20:30;142
07.01.2020;20:30;20:45;186
07.01.2020;20:45;21:00;190
07.01.2020;21:00;21:15;185
07.01.2020;21:15;21:30;224
07.01.2020;21:30;21:45;209
07.01.2020;21:45;22:00;175
07.01.2020;22:00;22:15;169
07.01.2020;22:15;22:30;241
07.01.2020;22:30;22:45;221
07.01.2020;22:45;23:00;211
07.01.2020;23:00;23:15;237
07.01.2020;23:15;23:30;242
07.01.2020;23:30;23:45;179
08.01.2020;23:45;00:00;191
08.01.2020;00:00;00:15;253
08.01.2020;00:15;00:30;257
08.01.2020;00:30;00:45;285
08.01.2020;00:45;01:00;368
08.01.2020;01:00;01:15;316
08.01.2020;01:15;01:30;352
08.01.2020;01:30;01:45;326
08.01.2020;01:45;02:00;319
08.01.2020;02:00;02:15;345
08.01.2020;02:15;02:30;359
08.01.2020;02:30;02:45;374
08.01.2020;02:45;03:00;356
08.01.2020;03:00;03:15;332
08.01.2020;03:15;03:30;300
08.01.2020;03:30;03:45;329
08.01.2020;03:45;04:00;315
08.01.2020;04:00;04:15;369
08.01.2020;04:15;04:30;353
08.01.2020;04:30;04:45;324
08.01.2020;04:45;05:00;349
08.01.2020;05:00;05:15;339
08.01.2020;05:15;05:30;195
08.01.2020;05:30;05:45;202
08.01.2020;05:45;06:00;274
08.01.2020;06:00;06:15;185
08.01.2020;06:15;06:30;205
08.01.2020;06:30;06:45;224
08.01.2020;06:45;07:00;245
08.01.2020;07:00;07:15;318
08.01.2020;07:15;07:30;325
08.01.2020;07:30;07:45;239
08.01.2020;07:45;08:00;242
08.01.2020;08:00;08:15;180
08.01.2020;08:15;08:30;234
08.01.2020;08:30;08:45;167
08.01.2020;08:45;09:00;221
08.01.2020;09:00;09:15;258
08.01.2020;09:15;09:30;305
08.01.2020;09:30;09:45;307
08.01.2020;09:45;10:00;237
08.01.2020;10:00;10:15;269
08.01.2020;10:15;10:30;285
08.01.2020;10:30;10:45;248
08.01.2020;10:45;11:00;305
08.01.2020;11:00;11:15;274
08.01.2020;11:15;11:30;286
08.01.2020;11:30;11:45;273
08.01.2020;11:45;12:00;222
08.01.2020;12:00;12:15;225
08.01.2020;12:15;12:30;176
08.01.2020;12:30;12:45;196
08.01.2020;12:45;13:00;227
08.01.2020;13:00;13:15;186
08.01.2020;13:15;13:30;230
08.01.2020;13:30;13:45;232
08.01.2020;13:45;14:00;239
08.01.2020;14:00;14:15;179
08.01.2020;14:15;14:30;129
08.01.2020;14:30;14:45;124
08.01.2020;14:45;15:00;129
08.01.2020;15:00;15:15;128
08.01.2020;15:15;15:30;148
08.01.2020;15:30;15:45;185
08.01.2020;15:45;16:00;151
08.01.2020;16:00;16:15;153
08.01.2020;16:15;16:30;185
08.01.2020;16:30;16:45;205
08.01.2020;16:45;17:00;162
08.01.2020;17:00;17:15;162
08.01.2020;17:15;17:30;150
08.01.2020;17:30;17:45;122
08.01.2020;17:45;18:00;122
08.01.2020;18:00;18:15;132
08.01.2020;18:15;18:30;126
08.01.2020;18:30;18:45;128
08.01.2020;18:45;19:00;142
08.01.2020;19:00;19:15;102
08.01.2020;19:15;19:30;129
08.01.2020;19:30;19:45;128
08.01.2020;19:45;20:00;137
08.01.2020;20:00;20:15;96
08.01.2020;20:15;20:30;131
08.01.2020;20:30;20:45;115
08.01.2020;20:45;21:00;115
08.01.2020;21:00;21:15;132
08.01.2020;21:15;21:30;134
08.01.2020;21:30;21:45;113
08.01.2020;21:45;22:00;116
08.01.2020;22:00;22:15;100
08.01.2020;22:15;22:30;92
08.01.2020;22:30;22:45;91
08.01.2020;22:45;23:00;81
08.01.2020;23:00;23:15;77
08.01.2020;23:15;23:30;89
08.01.2020;23:30;23:45;83
09.01.2020;23:45;00:00;83
09.01.2020;00:00;00:15;90
09.01.2020;00:15;00:30;57
09.01.2020;00:30;00:45;69
09.01.2020;00:45;01:00;78
09.01.2020;01:00;01:15;75
09.01.2020;01:15;01:30;73
09.01.2020;01:30;01:45;85
09.01.2020;01:45;02:00;101
09.01.2020;02:00;02:15;81
09.01.2020;02:15;02:30;27
09.01.2020;02:30;02:45;0
09.01.2020;02:45;03:00;0
09.01.2020;03:00;03:15;3
09.01.2020;03:15;03:30;23
09.01.2020;03:30;03:45;29
09.01.2020;03:45;04:00;26
09.01.2020;04:00;04:15;33
09.01.2020;04:15;04:30;43
09.01.2020;04:30;04:45;52
09.01.2020;04:45;05:00;51
09.01.2020;05:00;05:15;72
09.01.2020;05:15;05:30;57
09.01.2020;05:30;05:45;31
09.01.2020;05:45;06:00;39
09.01.2020;06:00;06:15;47
09.01.2020;06:15;06:30;48
09.01.2020;06:30;06:45;51
09.01.2020;06:45;07:00;52
09.01.2020;07:00;07:15;65
09.01.2020;07:15;07:30;54
09.01.2020;07:30;07:45;65
09.01.2020;07:45;08:00;60
09.01.2020;08:00;08:15;61
09.01.2020;08:15;08:30;70
09.01.2020;08:30;08:45;60
09.01.2020;08:45;09:00;42
09.01.2020;09:00;09:15;59
09.01.2020;09:15;09:30;64
09.01.2020;09:30;09:45;62
09.01.2020;09:45;10:00;101
09.01.2020;10:00;10:15;71
09.01.2020;10:15;10:30;58
09.01.2020;10:30;10:45;84
09.01.2020;10:45;11:00;91
09.01.2020;11:00;11:15;75
09.01.2020;11:15;11:30;191
09.01.2020;11:30;11:45;162
09.01.2020;11:45;12:00;193
09.01.2020;12:00;12:15;193
09.01.2020;12:15;12:30;196
09.01.2020;12:30;12:45;189
09.01.2020;12:45;13:00;133
09.01.2020;13:00;13:15;135
09.01.2020;13:15;13:30;152
09.01.2020;13:30;13:45;171
09.01.2020;13:45;14:00;170
09.01.2020;14:00;14:15;199
09.01.2020;14:15;14:30;222
09.01.2020;14:30;14:45;229
09.01.2020;14:45;15:00;196
09.01.2020;15:00;15:15;224
09.01.2020;15:15;15:30;212
09.01.2020;15:30;15:45;239
09.01.2020;15:45;16:00;234
09.01.2020;16:00;16:15;218
09.01.2020;16:15;16:30;232
09.01.2020;16:30;16:45;173
09.01.2020;16:45;17:00;218
09.01.2020;17:00;17:15;209
09.01.2020;17:15;17:30;182
09.01.2020;17:30;17:45;190
09.01.2020;17:45;18:00;190
09.01.2020;18:00;18:15;186
09.01.2020;18:15;18:30;204
09.01.2020;18:30;18:45;224
09.01.2020;18:45;19:00;223
09.01.2020;19:00;19:15;228
09.01.2020;19:15;19:30;211
09.01.2020;19:30;19:45;135
09.01.2020;19:45;20:00;151
09.01.2020;20:00;20:15;199
09.01.2020;20:15;20:30;220
09.01.2020;20:30;20:45;135
09.01.2020;20:45;21:00;145
09.01.2020;21:00;21:15;143
09.01.2020;21:15;21:30;145